Weather History for Stuttgart, AR

Change the Weather History Date:

Thursday, April 25, 2013

  Actual Average Record
Temperature  
Mean Temperature 55 °F -  
Max Temperature 66 °F 72 °F 82 °F (2012)
Min Temperature 44 °F 54 °F 44 °F (2013)
Degree Days  
Heating Degree Days 10    
Growing Degree Days 5 (Base 50)    
Moisture  
Dew Point 41 °F    
Average Humidity 61    
Maximum Humidity 87    
Minimum Humidity 37    
Precipitation  
Precipitation 0.00 in - - ()
Sea Level Pressure  
Sea Level Pressure 30.35 in    
Wind  
Wind Speed 2 mph (East)    
Max Wind Speed 9 mph    
Max Gust Speed -    
Visibility 9 miles    
Events      
Averages and records for this station are not official NWS values.
T = Trace of Precipitation, MM = Missing Value Source: NWS Daily Summary

Daily Weather History Graph

Daily Weather History Graph

Search for Another Location

Airport:

Trip Planner

Search our weather history database for the weather conditions in past years. The results will help you decide how hot, cold, wet, or windy it might be!

Date:

Astronomy

Apr. 25, 2013 Rise Set
Actual Time 6:22 AM CDT 7:46 PM CDT
Civil Twilight 5:55 AM CDT 8:13 PM CDT
Nautical Twilight 5:24 AM CDT 8:44 PM CDT
Astronomical Twilight 4:51 AM CDT 9:18 PM CDT
Moon 7:58 PM CDT (4/25) 6:05 AM CDT (4/25)
Length of Visible Light 14h 17m
Length of Day
13h 24m
Full, 100% of the Moon is Illuminated
Apr 25
Full
Apr 25
Full
May 2
Last Quarter
May 9
New
May 17
First Quarter

Hourly Weather History & Observations

Time (CDT) Temp. Windchill Dew Point Humidity Pressure Visibility Wind Dir Wind Speed Gust Speed Precip Events Conditions
12:15 AM 48.2 °F - 41.0 °F 76% 30.31 in 10.0 mi Calm Calm - N/A   Clear
12:35 AM 48.2 °F - 41.0 °F 76% 30.31 in 10.0 mi Calm Calm - N/A   Clear
12:55 AM 48.2 °F - 39.2 °F 71% 30.31 in 10.0 mi Calm Calm - N/A   Clear
1:15 AM 46.4 °F 44.3 °F 39.2 °F 76% 30.32 in 10.0 mi SSW 4.6 mph - N/A   Clear
1:35 AM 46.4 °F 45.2 °F 41.0 °F 81% 30.32 in 10.0 mi SSW 3.5 mph - N/A   Clear
1:55 AM 46.4 °F - 41.0 °F 81% 30.32 in 10.0 mi Calm Calm - N/A   Clear
2:15 AM 46.4 °F - 42.8 °F 87% 30.32 in 10.0 mi Calm Calm - N/A   Clear
2:35 AM 46.4 °F - 41.0 °F 81% 30.32 in 10.0 mi Calm Calm - N/A   Clear
2:55 AM 46.4 °F - 41.0 °F 81% 30.32 in 10.0 mi Calm Calm - N/A   Clear
3:15 AM 46.4 °F - 41.0 °F 81% 30.32 in 10.0 mi Calm Calm - N/A   Clear
3:35 AM 44.6 °F - 41.0 °F 87% 30.32 in 10.0 mi Calm Calm - N/A   Clear
3:55 AM 46.4 °F - 42.8 °F 87% 30.32 in 10.0 mi Calm Calm - N/A   Clear
4:15 AM 46.4 °F - 41.0 °F 81% 30.33 in 10.0 mi Calm Calm - N/A   Clear
4:35 AM 44.6 °F 43.1 °F 39.2 °F 81% 30.33 in 10.0 mi North 3.5 mph - N/A   Clear
4:55 AM 44.6 °F - 39.2 °F 81% 30.33 in 10.0 mi Calm Calm - N/A   Clear
5:15 AM 44.6 °F 43.1 °F 39.2 °F 81% 30.34 in 10.0 mi NNE 3.5 mph - N/A   Clear
5:35 AM 44.6 °F 43.1 °F 39.2 °F 81% 30.34 in 10.0 mi NE 3.5 mph - N/A   Clear
5:55 AM 44.6 °F - 39.2 °F 81% 30.35 in 10.0 mi Calm Calm - N/A   Clear
6:15 AM 44.6 °F - 39.2 °F 81% 30.35 in 10.0 mi Calm Calm - N/A   Clear
6:35 AM 44.6 °F - 39.2 °F 81% 30.36 in 10.0 mi Calm Calm - N/A   Clear
6:55 AM 44.6 °F - 39.2 °F 81% 30.37 in 10.0 mi Calm Calm - N/A   Clear
7:15 AM 44.6 °F - 39.2 °F 81% 30.39 in 10.0 mi Calm Calm - N/A   Clear
7:35 AM 48.2 °F - 42.8 °F 82% 30.39 in 10.0 mi South 3.5 mph - N/A   Clear
7:55 AM 48.2 °F - 42.8 °F 82% 30.40 in 10.0 mi South 3.5 mph - N/A   Clear
8:15 AM 48.2 °F - 42.8 °F 82% 30.40 in 10.0 mi SSE 4.6 mph - N/A   Clear
8:35 AM 50.0 °F - 41.0 °F 71% 30.40 in 10.0 mi SSE 5.8 mph - N/A   Clear
8:55 AM 51.8 °F - 41.0 °F 67% 30.41 in 10.0 mi Calm Calm - N/A   Clear
9:15 AM 51.8 °F - 41.0 °F 67% 30.41 in 10.0 mi South 3.5 mph - N/A   Clear
9:35 AM 53.6 °F - 39.2 °F 58% 30.41 in 10.0 mi South 3.5 mph - N/A   Clear
9:55 AM 53.6 °F - 41.0 °F 62% 30.41 in 10.0 mi Calm Calm - N/A   Clear
10:15 AM 55.4 °F - 42.8 °F 63% 30.41 in 10.0 mi Calm Calm - N/A   Clear
10:35 AM 55.4 °F - 42.8 °F 63% 30.42 in 10.0 mi Calm Calm - N/A   Clear
10:55 AM 55.4 °F - 39.2 °F 54% 30.42 in 10.0 mi NE 3.5 mph - N/A   Clear
11:15 AM 57.2 °F - 39.2 °F 51% 30.42 in 10.0 mi NE 4.6 mph - N/A   Clear
11:35 AM 57.2 °F - 41.0 °F 55% 30.42 in 10.0 mi Calm Calm - N/A   Clear
11:55 AM 59.0 °F - 41.0 °F 51% 30.42 in 10.0 mi NNW 3.5 mph - N/A   Clear
12:15 PM 60.8 °F - 42.8 °F 52% 30.41 in 10.0 mi North 4.6 mph - N/A   Clear
12:35 PM 60.8 °F - 41.0 °F 48% 30.41 in 10.0 mi North 5.8 mph - N/A   Clear
12:55 PM 60.8 °F - 41.0 °F 48% 30.40 in 10.0 mi Calm Calm - N/A   Clear
1:15 PM 60.8 °F - 42.8 °F 52% 30.39 in 10.0 mi Calm Calm - N/A   Clear
1:35 PM 62.6 °F - 42.8 °F 48% 30.39 in 10.0 mi Calm Calm - N/A   Clear
1:55 PM 62.6 °F - 42.8 °F 48% 30.38 in 10.0 mi NNE 4.6 mph - N/A   Clear
2:15 PM 62.6 °F - 42.8 °F 48% 30.38 in 9.0 mi Calm Calm - N/A   Clear
2:35 PM 64.4 °F - 42.8 °F 45% 30.37 in 10.0 mi SSE 4.6 mph - N/A   Clear
2:55 PM 64.4 °F - 42.8 °F 45% 30.36 in 10.0 mi East 4.6 mph - N/A   Clear
3:15 PM 66.2 °F - 39.2 °F 37% 30.35 in 10.0 mi ESE 8.1 mph - N/A   Clear
3:35 PM 66.2 °F - 41.0 °F 40% 30.34 in 10.0 mi ESE 8.1 mph - N/A   Clear
3:55 PM 66.2 °F - 42.8 °F 43% 30.32 in 10.0 mi ESE 8.1 mph - N/A   Clear
4:15 PM 66.2 °F - 39.2 °F 37% 30.33 in 10.0 mi East 4.6 mph - N/A   Clear
4:35 PM 66.2 °F - 39.2 °F 37% 30.33 in 10.0 mi SE 5.8 mph - N/A   Clear
4:55 PM 66.2 °F - 39.2 °F 37% 30.32 in 0.8 mi East 4.6 mph - N/A   Unknown
5:15 PM 66.2 °F - 39.2 °F 37% 30.32 in 0.5 mi East 6.9 mph - N/A   Unknown
5:35 PM 66.2 °F - 39.2 °F 37% 30.32 in 4.0 mi ENE 8.1 mph - N/A   Clear
5:55 PM 66.2 °F - 39.2 °F 37% 30.32 in 10.0 mi ENE 5.8 mph - N/A   Clear
6:15 PM 66.2 °F - 39.2 °F 37% 30.32 in 10.0 mi East 9.2 mph - N/A   Clear
6:35 PM 66.2 °F - 39.2 °F 37% 30.32 in 10.0 mi East 8.1 mph - N/A   Clear
6:55 PM 66.2 °F - 41.0 °F 40% 30.31 in 10.0 mi East 5.8 mph - N/A   Clear
7:15 PM 64.4 °F - 42.8 °F 45% 30.31 in 1.8 mi East 5.8 mph - N/A   Clear
7:35 PM 62.6 °F - 42.8 °F 48% 30.30 in 2.0 mi East 6.9 mph - N/A   Clear
7:55 PM 62.6 °F - 42.8 °F 48% 30.31 in 2.0 mi East 5.8 mph - N/A   Clear
8:15 PM 62.6 °F - 44.6 °F 52% 30.31 in 3.0 mi East 5.8 mph - N/A   Clear
8:35 PM 60.8 °F - 44.6 °F 55% 30.32 in 1.5 mi ESE 4.6 mph - N/A   Clear
8:55 PM 60.8 °F - 46.4 °F 59% 30.32 in 2.5 mi ESE 4.6 mph - N/A   Clear
9:15 PM 60.8 °F - 44.6 °F 55% 30.32 in 2.5 mi ESE 5.8 mph - N/A   Clear
10:15 PM 59.0 °F - 44.6 °F 59% 30.33 in 5.0 mi East 4.6 mph - N/A   Clear